N6OIM Weather Reports


time (UTC)temp
F
wind
direction
speed
knots
gust
knots
rain 1hr
in
rain 24hr
in
rain mn
in
humidity
%
barometer
mb
20210723162931 78 169 0.0 2.6 0.00 0.00 0.00 42 1013.7
20210723162407 78 141 0.9 2.6 0.00 0.00 0.00 41 1013.7
20210723161856 78 115 0.0 1.7 0.00 0.00 0.00 42 1013.9
20210723161348 77 115 0.9 1.7 0.00 0.00 0.00 43 1013.9
20210723160924 76 115 0.0 1.7 0.00 0.00 0.00 44 1013.8
20210723160347 76 115 0.0 1.7 0.00 0.00 0.00 44 1013.8
20210723155822 75 115 0.0 1.7 0.00 0.00 0.00 45 1013.8
20210723155420 75 114 0.9 1.7 0.00 0.00 0.00 45 1013.8
20210723154909 74 114 0.9 1.7 0.00 0.00 0.00 47 1013.8
20210723154414 74 115 0.0 0.0 0.00 0.00 0.00 48 1013.8
20210723153353 72 115 0.9 1.7 0.00 0.00 0.00 49 1013.6
20210723152832 72 115 0.0 1.7 0.00 0.00 0.00 50 1013.6
20210723152327 71 115 0.0 0.0 0.00 0.00 0.00 53 1013.6
20210723151415 70 115 0.9 1.7 0.00 0.00 0.00 54 1013.5
20210723150840 69 115 0.0 2.6 0.00 0.00 0.00 54 1013.5
20210723150321 68 116 1.7 2.6 0.00 0.00 0.00 56 1013.6
20210723145355 66 118 0.0 0.0 0.00 0.00 0.00 61 1013.6
20210723144839 65 118 0.0 0.0 0.00 0.00 0.00 62 1013.6
20210723144419 65 118 0.0 0.0 0.00 0.00 0.00 63 1013.5
20210723143835 64 118 0.0 0.0 0.00 0.00 0.00 64 1013.6
20210723143334 63 118 0.0 0.0 0.00 0.00 0.00 65 1013.6
20210723142823 63 118 0.0 0.0 0.00 0.00 0.00 66 1013.5
20210723140904 61 118 0.0 1.7 0.00 0.00 0.00 67 1013.3
20210723135416 60 117 1.7 2.6 0.00 0.00 0.00 71 1013.3
20210723133905 60 128 0.0 0.0 0.00 0.00 0.00 72 1013.0
20210723133340 60 128 0.0 0.0 0.00 0.00 0.00 72 1012.8
20210723132404 60 132 0.0 0.0 0.00 0.00 0.00 71 1012.7
20210723131849 60 121 0.0 0.0 0.00 0.00 0.00 71 1012.6
20210723131321 60 121 0.0 0.0 0.00 0.00 0.00 70 1012.5
20210723130819 60 121 0.0 0.0 0.00 0.00 0.00 70 1012.5
20210723130418 60 121 0.0 0.0 0.00 0.00 0.00 69 1012.4
20210723123429 61 121 0.0 0.0 0.00 0.00 0.00 66 1012.2
20210723122842 61 121 0.0 0.0 0.00 0.00 0.00 66 1012.0
20210723122327 61 121 0.0 0.0 0.00 0.00 0.00 66 1012.0
20210723121915 61 121 0.0 0.0 0.00 0.00 0.00 65 1012.0
20210723121414 61 121 0.0 0.0 0.00 0.00 0.00 65 1012.1
20210723113922 62 121 0.0 0.0 0.00 0.00 0.00 63 1011.9
20210723113342 62 121 0.0 0.0 0.00 0.00 0.00 63 1012.0
20210723112935 62 121 0.0 0.0 0.00 0.00 0.00 63 1012.0
20210723111908 62 121 0.0 0.9 0.00 0.00 0.00 64 1012.0
20210723105913 62 121 0.0 0.0 0.00 0.00 0.00 65 1012.0
20210723104901 62 121 0.0 0.0 0.00 0.00 0.00 62 1012.1
20210723104400 62 121 0.0 0.0 0.00 0.00 0.00 62 1012.0
20210723103903 63 121 0.0 0.0 0.00 0.00 0.00 61 1012.0
20210723103345 63 121 0.0 0.0 0.00 0.00 0.00 61 1012.0
20210723102822 63 121 0.0 0.0 0.00 0.00 0.00 60 1012.1
20210723100411 64 121 0.0 0.0 0.00 0.00 0.00 57 1012.1
20210723095846 64 121 0.0 0.0 0.00 0.00 0.00 58 1012.2
20210723095340 65 121 0.0 0.0 0.00 0.00 0.00 57 1012.1
20210723094916 65 121 0.0 0.0 0.00 0.00 0.00 57 1012.2
20210723093405 65 121 0.0 0.0 0.00 0.00 0.00 56 1012.1
20210723092845 65 121 0.0 0.0 0.00 0.00 0.00 56 1012.2
20210723090410 67 121 0.0 0.0 0.00 0.00 0.00 54 1012.2
20210723085816 67 121 0.0 0.0 0.00 0.00 0.00 53 1012.3
20210723085319 68 121 0.0 0.0 0.00 0.00 0.00 52 1012.2
20210723084851 68 121 0.0 0.0 0.00 0.00 0.00 51 1012.2
20210723084330 68 121 0.0 0.0 0.00 0.00 0.00 51 1012.0
20210723083825 69 121 0.0 0.0 0.00 0.00 0.00 51 1012.0
20210723083324 69 121 0.0 0.0 0.00 0.00 0.00 51 1012.0
20210723082824 69 121 0.0 0.0 0.00 0.00 0.00 50 1012.1
20210723082343 69 121 0.0 0.0 0.00 0.00 0.00 50 1012.0
20210723081835 69 121 0.0 1.7 0.00 0.00 0.00 49 1012.0
20210723081332 70 121 0.0 1.7 0.00 0.00 0.00 49 1012.1
20210723080827 70 121 0.9 1.7 0.00 0.00 0.00 49 1012.1
20210723080319 70 121 0.9 2.6 0.00 0.00 0.00 48 1012.1
20210723075835 70 121 0.9 3.5 0.00 0.00 0.00 48 1012.2
20210723075335 70 87 1.7 3.5 0.00 0.00 0.00 48 1012.1
20210723074849 70 114 0.9 2.6 0.00 0.00 0.00 49 1012.1
20210723074327 70 173 0.9 5.2 0.00 0.00 0.00 48 1012.1
20210723073824 71 170 0.9 5.2 0.00 0.00 0.00 48 1012.1
20210723073322 71 149 1.7 3.5 0.00 0.00 0.00 47 1012.2
20210723072816 71 149 0.9 3.5 0.00 0.00 0.00 47 1012.1
20210723072318 71 123 1.7 6.1 0.00 0.00 0.00 47 1012.2
20210723071818 71 117 0.9 6.1 0.00 0.00 0.00 47 1012.2
20210723071347 72 126 1.7 4.3 0.00 0.00 0.00 46 1012.3
20210723070826 72 155 0.9 3.5 0.00 0.00 0.00 47 1012.2
20210723070322 72 163 0.9 3.5 0.00 0.00 0.00 46 1012.1
20210723065818 72 137 0.0 1.7 0.00 0.00 0.00 47 1012.0
20210723065427 72 137 0.9 3.5 0.00 0.00 0.00 46 1012.1
20210723064404 73 136 0.9 2.6 0.00 0.00 0.00 46 1012.2
20210723063841 73 135 0.0 3.5 0.00 0.00 0.00 45 1012.2
20210723063335 73 114 2.6 3.5 0.00 0.00 0.00 45 1012.3
20210723062825 73 118 1.7 3.5 0.00 0.00 0.00 45 1012.3
20210723062418 74 128 1.7 2.6 0.00 0.00 0.00 45 1012.3
20210723061837 74 130 0.9 2.6 0.00 0.00 0.00 45 1012.3
20210723061337 74 138 1.7 2.6 0.00 0.00 0.00 44 1012.4
20210723055910 75 138 0.9 1.7 0.00 0.00 0.00 43 1012.3
20210723055318 76 152 0.0 2.6 0.00 0.00 0.00 43 1012.3
20210723054418 76 150 1.7 3.5 0.00 0.00 0.00 42 1012.3
20210723053852 76 192 1.7 1.7 0.00 0.00 0.00 41 1012.3
20210723052319 77 192 1.7 3.5 0.00 0.00 0.00 40 1011.9
20210723051932 78 146 0.9 4.3 0.00 0.00 0.00 40 1011.8
20210723051349 78 176 2.6 4.3 0.00 0.00 0.00 40 1011.8
20210723050853 78 144 0.9 1.7 0.00 0.00 0.00 40 1011.7
20210723050334 79 144 0.9 1.7 0.00 0.00 0.00 39 1011.7
20210723045826 79 137 0.0 1.7 0.00 0.00 0.00 38 1011.5
20210723045427 79 155 0.0 1.7 0.00 0.00 0.00 38 1011.5
20210723044408 80 159 0.9 2.6 0.00 0.00 0.00 38 1011.3
20210723043904 81 117 0.9 2.6 0.00 0.00 0.00 37 1011.3
20210723043348 81 180 0.9 1.7 0.00 0.00 0.00 36 1011.4
20210723042903 81 180 0.9 4.3 0.00 0.00 0.00 35 1011.4
20210723041902 82 160 0.9 3.5 0.00 0.00 0.00 35 1011.1
20210723041339 83 177 0.0 3.5 0.00 0.00 0.00 33 1011.0
20210723040913 83 238 0.9 3.5 0.00 0.00 0.00 33 1011.0
20210723035402 84 236 0.9 3.5 0.00 0.00 0.00 33 1011.0
20210723034934 85 203 0.9 9.6 0.00 0.00 0.00 33 1010.9
20210723034402 86 157 2.6 9.6 0.00 0.00 0.00 32 1010.7
20210723033841 86 222 0.9 2.6 0.00 0.00 0.00 32 1010.6
20210723033431 87 208 0.9 2.6 0.00 0.00 0.00 31 1010.6
20210723032844 88 163 0.0 2.6 0.00 0.00 0.00 30 1010.5
20210723032346 88 140 0.0 2.6 0.00 0.00 0.00 29 1010.4
20210723030911 90 254 0.0 0.0 0.00 0.00 0.00 27 1010.3
20210723030404 90 240 0.0 1.7 0.00 0.00 0.00 27 1010.2
20210723025840 91 242 0.9 3.5 0.00 0.00 0.00 26 1010.2
20210723025434 91 242 0.0 3.5 0.00 0.00 0.00 26 1010.2
20210723024857 92 207 1.7 5.2 0.00 0.00 0.00 25 1010.2
20210723024344 93 238 2.6 5.2 0.00 0.00 0.00 25 1010.2
20210723023820 94 235 0.9 4.3 0.00 0.00 0.00 24 1010.1
20210723021903 95 199 1.7 4.3 0.00 0.00 0.00 18 1010.1
20210723021343 96 196 2.6 4.3 0.00 0.00 0.00 18 1010.1
20210723020824 96 210 2.6 4.3 0.00 0.00 0.00 18 1010.0
20210723020413 97 188 0.9 3.5 0.00 0.00 0.00 18 1010.0
20210723015843 97 183 1.7 3.5 0.00 0.00 0.00 18 1009.9
20210723015327 97 253 0.9 2.6 0.00 0.00 0.00 18 1009.8
20210723014819 97 164 1.7 3.5 0.00 0.00 0.00 18 1009.8
20210723012406 99 198 2.6 4.3 0.00 0.00 0.00 18 1009.6
20210723011409 99 210 1.7 3.5 0.00 0.00 0.00 18 1009.6
20210723010915 99 145 0.0 2.6 0.00 0.00 0.00 18 1009.6
20210723010347 99 156 1.7 3.5 0.00 0.00 0.00 15 1009.7
20210723005410 99 247 3.5 5.2 0.00 0.00 0.00 15 1009.8
20210723004411 99 191 2.6 4.3 0.00 0.00 0.00 16 1009.8
20210723002911 100 133 2.6 6.1 0.00 0.00 0.00 20 1009.8
20210723002353 100 126 3.5 4.3 0.00 0.00 0.00 20 1009.8
20210723001836 100 254 0.9 4.3 0.00 0.00 0.00 19 1009.9
20210723001324 100 223 2.6 4.3 0.00 0.00 0.00 19 1009.9
20210723000821 100 219 3.5 4.3 0.00 0.00 0.00 18 1009.8
20210723000417 100 146 0.0 3.5 0.00 0.00 0.00 19 1009.8
20210722234824 100 221 1.7 2.6 0.00 0.00 0.00 19 1010.0
20210722234428 100 246 0.9 3.5 0.00 0.00 0.00 18 1010.0
20210722233855 100 227 1.7 3.5 0.00 0.00 0.00 18 1010.1
20210722233334 100 187 0.9 3.5 0.00 0.00 0.00 18 1010.1
20210722232938 100 148 1.7 5.2 0.00 0.00 0.00 17 1010.1
20210722231911 100 199 1.7 6.1 0.00 0.00 0.00 18 1010.1
20210722231402 100 284 2.6 5.2 0.00 0.00 0.00 18 1010.1
20210722230420 99 294 2.6 4.3 0.00 0.00 0.00 18 1010.2
20210722225358 99 298 2.6 4.3 0.00 0.00 0.00 18 1010.3
20210722224851 99 234 1.7 4.3 0.00 0.00 0.00 19 1010.3
20210722224343 99 257 1.7 3.5 0.00 0.00 0.00 19 1010.4
20210722223819 99 244 0.9 4.3 0.00 0.00 0.00 19 1010.4
20210722223418 99 281 1.7 6.1 0.00 0.00 0.00 20 1010.5
20210722222830 98 192 5.2 6.1 0.00 0.00 0.00 22 1010.5
20210722222317 98 293 2.6 4.3 0.00 0.00 0.00 20 1010.5
20210722221907 98 221 2.6 4.3 0.00 0.00 0.00 21 1010.6
20210722221341 97 254 2.6 4.3 0.00 0.00 0.00 20 1010.6
20210722220846 97 329 1.7 4.3 0.00 0.00 0.00 20 1010.6
20210722220431 97 236 1.7 4.3 0.00 0.00 0.00 21 1010.6
20210722215357 96 273 2.6 4.3 0.00 0.00 0.00 22 1010.8
20210722214851 96 265 1.7 3.5 0.00 0.00 0.00 23 1010.9
20210722214342 96 275 2.6 4.3 0.00 0.00 0.00 24 1010.8
20210722213908 96 275 3.5 4.3 0.00 0.00 0.00 24 1010.8
20210722213422 96 152 0.9 3.5 0.00 0.00 0.00 26 1010.9
20210722212910 96 268 2.6 4.3 0.00 0.00 0.00 25 1011.1
20210722212436 96 246 2.6 4.3 0.00 0.00 0.00 25 1011.0
20210722211855 96 126 0.9 5.2 0.00 0.00 0.00 25 1011.0
20210722211406 96 191 1.7 5.2 0.00 0.00 0.00 25 1011.2
20210722210844 96 149 2.6 4.3 0.00 0.00 0.00 24 1011.1
20210722210337 95 155 0.9 2.6 0.00 0.00 0.00 23 1011.3
20210722205924 95 188 0.0 5.2 0.00 0.00 0.00 23 1011.3
20210722205403 95 144 2.6 5.2 0.00 0.00 0.00 23 1011.2
20210722203906 94 173 2.6 4.3 0.00 0.00 0.00 25 1011.4
20210722203359 93 86 3.5 4.3 0.00 0.00 0.00 26 1011.4
20210722202829 93 190 1.7 4.3 0.00 0.00 0.00 26 1011.4
20210722202430 93 182 1.7 3.5 0.00 0.00 0.00 27 1011.4
20210722195912 91 271 2.6 4.3 0.00 0.00 0.00 29 1011.4
20210722195404 91 191 1.7 4.3 0.00 0.00 0.00 30 1011.5
20210722194904 90 238 1.7 2.6 0.00 0.00 0.00 30 1011.4
20210722193931 89 211 1.7 4.3 0.00 0.00 0.00 33 1011.6
20210722193348 89 215 3.5 4.3 0.00 0.00 0.00 32 1011.6
20210722191913 88 271 1.7 2.6 0.00 0.00 0.00 34 1011.7
20210722191410 88 278 0.9 3.5 0.00 0.00 0.00 34 1011.7
20210722190852 88 209 2.6 3.5 0.00 0.00 0.00 34 1011.6
20210722190336 87 173 1.7 3.5 0.00 0.00 0.00 33 1011.6
20210722185828 87 187 1.7 4.3 0.00 0.00 0.00 34 1011.6
20210722185436 87 172 0.9 5.2 0.00 0.00 0.00 35 1011.6
20210722181903 84 294 2.6 3.5 0.00 0.00 0.00 36 1011.8
20210722181409 84 226 1.7 3.5 0.00 0.00 0.00 36 1011.8
20210722180854 84 214 1.7 2.6 0.00 0.00 0.00 37 1011.8
20210722180431 83 172 1.7 2.6 0.00 0.00 0.00 37 1011.8
20210722175406 82 192 0.9 3.5 0.00 0.00 0.00 39 1011.7
20210722174842 81 214 0.0 3.5 0.00 0.00 0.00 39 1011.7
20210722174319 80 175 0.9 4.3 0.00 0.00 0.00 40 1011.8
20210722173918 80 191 1.7 4.3 0.00 0.00 0.00 40 1011.8
20210722173345 80 154 2.6 4.3 0.00 0.00 0.00 40 1011.7
20210722172837 79 117 1.7 2.6 0.00 0.00 0.00 41 1011.6
20210722164413 76 90 0.9 5.2 0.00 0.00 0.00 44 1011.4
20210722163902 76 181 3.5 5.2 0.00 0.00 0.00 45 1011.5
20210722163344 76 135 0.9 3.5 0.00 0.00 0.00 45 1011.5